| time (UTC) | temp C | wind direction | speed KPH | gust KPH | rain 1hr cm | rain 24hr cm | rain mn cm | humidity % | barometer mb |
| 20260504050352 | 2 | 163 | 0.0 | 0.0 | 0.00 | 0.00 | 0.00 | 80 | 1014.6 |
| 20260504045849 | 2 | 163 | 0.0 | 0.0 | 0.00 | 0.00 | 0.00 | 80 | 1014.7 |
| 20260504045350 | 2 | 165 | 1.6 | 1.6 | 0.00 | 0.00 | 0.00 | 78 | 1014.7 |
| 20260504044847 | 2 | 169 | 0.0 | 0.0 | 0.00 | 0.00 | 0.00 | 78 | 1014.6 |
| 20260504044344 | 2 | 169 | 0.0 | 0.0 | 0.00 | 0.00 | 0.00 | 78 | 1014.6 |
| 20260504043842 | 2 | 169 | 0.0 | 0.0 | 0.00 | 0.00 | 0.00 | 78 | 1014.6 |
| 20260504043338 | 2 | 169 | 0.0 | 0.0 | 0.00 | 0.00 | 0.00 | 79 | 1014.4 |
| 20260504042835 | 2 | 169 | 0.0 | 0.0 | 0.00 | 0.00 | 0.00 | 79 | 1014.4 |
| 20260504042332 | 2 | 169 | 0.0 | 0.0 | 0.00 | 0.00 | 0.00 | 79 | 1014.7 |
| 20260504041828 | 2 | 180 | 0.0 | 1.6 | 0.00 | 0.00 | 0.00 | 78 | 1014.4 |
| 20260504041324 | 2 | 180 | 0.0 | 0.0 | 0.00 | 0.00 | 0.00 | 76 | 1014.4 |
| 20260504040820 | 2 | 168 | 0.0 | 0.0 | 0.00 | 0.00 | 0.00 | 76 | 1014.4 |
| 20260504040319 | 3 | 168 | 0.0 | 0.0 | 0.00 | 0.00 | 0.00 | 75 | 1014.6 |
| 20260504035814 | 3 | 168 | 3.2 | 3.2 | 0.00 | 0.00 | 0.00 | 73 | 1014.7 |
| 20260504035312 | 3 | 164 | 3.2 | 3.2 | 0.00 | 0.00 | 0.00 | 73 | 1014.8 |
| 20260504034809 | 3 | 166 | 3.2 | 3.2 | 0.00 | 0.00 | 0.00 | 73 | 1014.6 |
| 20260504034306 | 3 | 179 | 0.0 | 0.0 | 0.00 | 0.00 | 0.00 | 73 | 1014.7 |
| 20260504033803 | 3 | 179 | 1.6 | 3.2 | 0.00 | 0.00 | 0.00 | 72 | 1014.7 |
| 20260504033301 | 3 | 169 | 0.0 | 1.6 | 0.00 | 0.00 | 0.00 | 71 | 1014.8 |
| 20260504032757 | 3 | 170 | 3.2 | 3.2 | 0.00 | 0.00 | 0.00 | 71 | 1014.7 |
| 20260504032255 | 4 | 171 | 3.2 | 3.2 | 0.00 | 0.00 | 0.00 | 70 | 1014.6 |
| 20260504031751 | 5 | 189 | 0.0 | 0.0 | 0.00 | 0.00 | 0.00 | 66 | 1014.8 |
| 20260504031249 | 5 | 189 | 0.0 | 0.0 | 0.00 | 0.00 | 0.00 | 65 | 1014.8 |
| 20260504030744 | 4 | 182 | 3.2 | 3.2 | 0.00 | 0.00 | 0.00 | 67 | 1014.8 |
| 20260504030242 | 4 | 175 | 1.6 | 3.2 | 0.00 | 0.00 | 0.00 | 68 | 1014.7 |
| 20260504025738 | 4 | 161 | 3.2 | 3.2 | 0.00 | 0.00 | 0.00 | 68 | 1014.7 |
| 20260504025235 | 3 | 169 | 1.6 | 3.2 | 0.00 | 0.00 | 0.00 | 70 | 1014.8 |
| 20260504024732 | 3 | 166 | 3.2 | 3.2 | 0.00 | 0.00 | 0.00 | 71 | 1014.6 |
| 20260504024229 | 4 | 170 | 1.6 | 3.2 | 0.00 | 0.00 | 0.00 | 69 | 1014.7 |
| 20260504023726 | 5 | 187 | 1.6 | 1.6 | 0.00 | 0.00 | 0.00 | 68 | 1014.8 |
| 20260504023221 | 5 | 181 | 1.6 | 1.6 | 0.00 | 0.00 | 0.00 | 66 | 1014.8 |
| 20260504022718 | 5 | 185 | 3.2 | 3.2 | 0.00 | 0.00 | 0.00 | 67 | 1014.9 |
| 20260504022214 | 5 | 177 | 3.2 | 3.2 | 0.00 | 0.00 | 0.00 | 67 | 1014.7 |
| 20260504021712 | 5 | 177 | 3.2 | 3.2 | 0.00 | 0.00 | 0.00 | 67 | 1014.7 |
| 20260504021209 | 5 | 169 | 3.2 | 3.2 | 0.00 | 0.00 | 0.00 | 67 | 1014.8 |
| 20260504020705 | 5 | 171 | 3.2 | 3.2 | 0.00 | 0.00 | 0.00 | 66 | 1014.7 |
| 20260504020201 | 5 | 175 | 3.2 | 3.2 | 0.00 | 0.00 | 0.00 | 64 | 1014.7 |
| 20260504015658 | 5 | 169 | 3.2 | 3.2 | 0.00 | 0.00 | 0.00 | 64 | 1014.7 |
| 20260504015154 | 5 | 171 | 3.2 | 3.2 | 0.00 | 0.00 | 0.00 | 63 | 1014.7 |
| 20260504014650 | 6 | 171 | 3.2 | 3.2 | 0.00 | 0.00 | 0.00 | 62 | 1014.6 |
| 20260504014148 | 6 | 175 | 3.2 | 3.2 | 0.00 | 0.00 | 0.00 | 62 | 1014.6 |
| 20260504013645 | 6 | 172 | 3.2 | 3.2 | 0.00 | 0.00 | 0.00 | 62 | 1014.7 |
| 20260504013142 | 6 | 177 | 4.8 | 4.8 | 0.00 | 0.00 | 0.00 | 62 | 1014.6 |
| 20260504012639 | 6 | 171 | 3.2 | 3.2 | 0.00 | 0.00 | 0.00 | 63 | 1014.4 |
| 20260504012137 | 6 | 174 | 3.2 | 3.2 | 0.00 | 0.00 | 0.00 | 62 | 1014.6 |
| 20260504011633 | 6 | 164 | 3.2 | 3.2 | 0.00 | 0.00 | 0.00 | 60 | 1014.4 |
| 20260504011130 | 7 | 166 | 3.2 | 3.2 | 0.00 | 0.00 | 0.00 | 58 | 1014.3 |
| 20260504010626 | 7 | 164 | 1.6 | 1.6 | 0.00 | 0.00 | 0.00 | 54 | 1014.4 |
| 20260504010122 | 7 | 192 | 0.0 | 1.6 | 0.00 | 0.00 | 0.00 | 54 | 1014.6 |
| 20260504005619 | 7 | 192 | 0.0 | 0.0 | 0.00 | 0.00 | 0.00 | 51 | 1014.7 |
| 20260504005116 | 7 | 192 | 0.0 | 0.0 | 0.00 | 0.00 | 0.00 | 52 | 1014.4 |
| 20260504004614 | 8 | 192 | 0.0 | 0.0 | 0.00 | 0.00 | 0.00 | 51 | 1014.6 |
| 20260504004111 | 8 | 192 | 0.0 | 0.0 | 0.00 | 0.00 | 0.00 | 50 | 1014.6 |
| 20260504003607 | 8 | 180 | 0.0 | 0.0 | 0.00 | 0.00 | 0.00 | 50 | 1014.3 |
| 20260504003104 | 8 | 180 | 0.0 | 0.0 | 0.00 | 0.00 | 0.00 | 49 | 1014.3 |
| 20260504002601 | 8 | 171 | 1.6 | 1.6 | 0.00 | 0.00 | 0.00 | 52 | 1014.2 |
| 20260504002058 | 8 | 207 | 0.0 | 0.0 | 0.00 | 0.00 | 0.00 | 50 | 1014.2 |
| 20260504001556 | 8 | 207 | 0.0 | 0.0 | 0.00 | 0.00 | 0.00 | 48 | 1014.1 |
| 20260504001051 | 9 | 276 | 0.0 | 0.0 | 0.00 | 0.00 | 0.00 | 48 | 1014.3 |
| 20260504000549 | 9 | 276 | 3.2 | 3.2 | 0.00 | 0.00 | 0.00 | 47 | 1014.1 |
| 20260504000046 | 9 | 279 | 0.0 | 0.0 | 0.00 | 0.00 | 0.00 | 47 | 1014.2 |
| 20260503235544 | 10 | 272 | 1.6 | 1.6 | 0.00 | 0.00 | 0.00 | 47 | 1014.2 |
| 20260503235041 | 10 | 272 | 0.0 | 0.0 | 0.00 | 0.00 | 0.00 | 46 | 1014.4 |
| 20260503234538 | 10 | 289 | 0.0 | 1.6 | 0.00 | 0.00 | 0.00 | 45 | 1014.4 |
| 20260503234037 | 10 | 244 | 0.0 | 1.6 | 0.00 | 0.00 | 0.00 | 45 | 1014.4 |
| 20260503233533 | 10 | 325 | 0.0 | 0.0 | 0.00 | 0.00 | 0.00 | 46 | 1014.2 |
| 20260503233029 | 10 | 339 | 0.0 | 0.0 | 0.00 | 0.00 | 0.00 | 44 | 1014.3 |
| 20260503232526 | 10 | 332 | 4.8 | 4.8 | 0.00 | 0.00 | 0.00 | 42 | 1014.3 |
| 20260503232024 | 10 | 260 | 4.8 | 6.4 | 0.00 | 0.00 | 0.00 | 42 | 1014.3 |
| 20260503231521 | 11 | 255 | 1.6 | 3.2 | 0.00 | 0.00 | 0.00 | 43 | 1014.3 |
| 20260503231018 | 11 | 268 | 4.8 | 4.8 | 0.00 | 0.00 | 0.00 | 42 | 1014.2 |
| 20260503230514 | 11 | 291 | 1.6 | 3.2 | 0.00 | 0.00 | 0.00 | 42 | 1014.2 |
| 20260503230012 | 11 | 324 | 1.6 | 3.2 | 0.00 | 0.00 | 0.00 | 45 | 1014.1 |
| 20260503225509 | 11 | 260 | 0.0 | 0.0 | 0.00 | 0.00 | 0.00 | 41 | 1014.2 |
| 20260503225003 | 11 | 313 | 0.0 | 1.6 | 0.00 | 0.00 | 0.00 | 41 | 1014.2 |
| 20260503224501 | 11 | 269 | 4.8 | 9.7 | 0.00 | 0.00 | 0.00 | 41 | 1014.2 |
| 20260503223959 | 11 | 228 | 1.6 | 1.6 | 0.00 | 0.00 | 0.00 | 40 | 1014.2 |
| 20260503223457 | 12 | 318 | 6.4 | 6.4 | 0.00 | 0.00 | 0.00 | 39 | 1014.4 |
| 20260503222952 | 12 | 294 | 1.6 | 1.6 | 0.00 | 0.00 | 0.00 | 42 | 1014.2 |
| 20260503222451 | 12 | 303 | 3.2 | 3.2 | 0.00 | 0.00 | 0.00 | 39 | 1014.3 |
| 20260503221949 | 12 | 250 | 0.0 | 1.6 | 0.00 | 0.00 | 0.00 | 40 | 1014.3 |
| 20260503221447 | 12 | 202 | 3.2 | 3.2 | 0.00 | 0.00 | 0.00 | 39 | 1014.4 |
| 20260503220943 | 12 | 271 | 1.6 | 1.6 | 0.00 | 0.00 | 0.00 | 38 | 1014.2 |
| 20260503220439 | 12 | 270 | 3.2 | 3.2 | 0.00 | 0.00 | 0.00 | 38 | 1014.2 |
| 20260503215937 | 13 | 326 | 1.6 | 3.2 | 0.00 | 0.00 | 0.00 | 37 | 1014.3 |
| 20260503215433 | 13 | 203 | 1.6 | 3.2 | 0.00 | 0.00 | 0.00 | 38 | 1014.1 |
| 20260503214931 | 12 | 273 | 4.8 | 6.4 | 0.00 | 0.00 | 0.00 | 39 | 1014.2 |
| 20260503214429 | 12 | 293 | 3.2 | 4.8 | 0.00 | 0.00 | 0.00 | 37 | 1014.2 |
| 20260503213926 | 13 | 272 | 4.8 | 9.7 | 0.00 | 0.00 | 0.00 | 37 | 1014.3 |
| 20260503213424 | 12 | 274 | 4.8 | 4.8 | 0.00 | 0.00 | 0.00 | 39 | 1014.1 |
| 20260503212920 | 13 | 254 | 3.2 | 6.4 | 0.00 | 0.00 | 0.00 | 36 | 1014.3 |
| 20260503212418 | 13 | 270 | 3.2 | 6.4 | 0.00 | 0.00 | 0.00 | 39 | 1014.1 |
| 20260503211915 | 12 | 189 | 4.8 | 6.4 | 0.00 | 0.00 | 0.00 | 38 | 1014.3 |
| 20260503211412 | 12 | 270 | 1.6 | 3.2 | 0.00 | 0.00 | 0.00 | 37 | 1014.3 |
| 20260503210907 | 12 | 187 | 0.0 | 1.6 | 0.00 | 0.00 | 0.00 | 41 | 1014.4 |
| 20260503210405 | 12 | 299 | 1.6 | 1.6 | 0.00 | 0.00 | 0.00 | 39 | 1014.4 |
| 20260503205904 | 12 | 245 | 3.2 | 4.8 | 0.00 | 0.00 | 0.00 | 37 | 1014.4 |
| 20260503205402 | 12 | 305 | 4.8 | 6.4 | 0.00 | 0.00 | 0.00 | 42 | 1014.4 |
| 20260503204858 | 12 | 292 | 3.2 | 4.8 | 0.00 | 0.00 | 0.00 | 39 | 1014.6 |
| 20260503204356 | 12 | 282 | 6.4 | 6.4 | 0.00 | 0.00 | 0.00 | 37 | 1014.8 |
| 20260503203853 | 12 | 319 | 3.2 | 4.8 | 0.00 | 0.00 | 0.00 | 41 | 1014.4 |
| 20260503203350 | 11 | 33 | 8.0 | 11.3 | 0.00 | 0.00 | 0.00 | 42 | 1014.6 |
| 20260503202847 | 12 | 349 | 3.2 | 6.4 | 0.00 | 0.00 | 0.00 | 43 | 1014.8 |
| 20260503202345 | 12 | 257 | 3.2 | 3.2 | 0.00 | 0.00 | 0.00 | 40 | 1014.8 |
| 20260503201843 | 12 | 301 | 3.2 | 6.4 | 0.00 | 0.00 | 0.00 | 38 | 1014.9 |
| 20260503201340 | 12 | 337 | 6.4 | 9.7 | 0.00 | 0.00 | 0.00 | 40 | 1014.8 |
| 20260503200837 | 12 | 8 | 6.4 | 6.4 | 0.00 | 0.00 | 0.00 | 40 | 1014.7 |
| 20260503200333 | 12 | 287 | 4.8 | 6.4 | 0.00 | 0.00 | 0.00 | 39 | 1014.9 |
| 20260503195830 | 12 | 281 | 6.4 | 6.4 | 0.00 | 0.00 | 0.00 | 37 | 1014.9 |
| 20260503195327 | 12 | 234 | 3.2 | 3.2 | 0.00 | 0.00 | 0.00 | 39 | 1015.0 |
| 20260503194824 | 12 | 7 | 6.4 | 9.7 | 0.00 | 0.00 | 0.00 | 39 | 1015.0 |
| 20260503194320 | 12 | 158 | 4.8 | 6.4 | 0.00 | 0.00 | 0.00 | 38 | 1015.2 |
| 20260503193816 | 11 | 268 | 3.2 | 4.8 | 0.00 | 0.00 | 0.00 | 43 | 1015.2 |
| 20260503193312 | 11 | 290 | 3.2 | 4.8 | 0.00 | 0.00 | 0.00 | 43 | 1015.1 |
| 20260503192809 | 11 | 310 | 3.2 | 4.8 | 0.00 | 0.00 | 0.00 | 39 | 1015.4 |
| 20260503192305 | 12 | 27 | 4.8 | 6.4 | 0.00 | 0.00 | 0.00 | 40 | 1015.4 |
| 20260503191800 | 12 | 253 | 6.4 | 6.4 | 0.00 | 0.00 | 0.00 | 38 | 1015.3 |
| 20260503191257 | 11 | 315 | 6.4 | 11.3 | 0.00 | 0.00 | 0.00 | 39 | 1015.3 |
| 20260503190754 | 11 | 330 | 12.9 | 14.5 | 0.00 | 0.00 | 0.00 | 42 | 1015.4 |
| 20260503190251 | 11 | 347 | 3.2 | 4.8 | 0.00 | 0.00 | 0.00 | 39 | 1015.5 |
| 20260503185748 | 12 | 230 | 4.8 | 4.8 | 0.00 | 0.00 | 0.00 | 39 | 1015.5 |
| 20260503185244 | 12 | 344 | 6.4 | 6.4 | 0.00 | 0.00 | 0.00 | 40 | 1015.6 |
| 20260503184738 | 12 | 268 | 3.2 | 4.8 | 0.00 | 0.00 | 0.00 | 41 | 1015.5 |
| 20260503184235 | 12 | 237 | 1.6 | 3.2 | 0.00 | 0.00 | 0.00 | 41 | 1015.8 |
| 20260503183731 | 12 | 344 | 4.8 | 6.4 | 0.00 | 0.00 | 0.00 | 44 | 1015.8 |
| 20260503183229 | 11 | 319 | 4.8 | 4.8 | 0.00 | 0.00 | 0.00 | 42 | 1015.6 |
| 20260503182727 | 11 | 296 | 8.0 | 9.7 | 0.00 | 0.00 | 0.00 | 41 | 1015.8 |
| 20260503182225 | 11 | 23 | 8.0 | 9.7 | 0.00 | 0.00 | 0.00 | 42 | 1015.7 |
| 20260503181722 | 11 | 213 | 8.0 | 12.9 | 0.00 | 0.00 | 0.00 | 40 | 1015.6 |
| 20260503181219 | 11 | 324 | 8.0 | 12.9 | 0.00 | 0.00 | 0.00 | 42 | 1016.0 |
| 20260503180715 | 11 | 321 | 4.8 | 11.3 | 0.00 | 0.00 | 0.00 | 43 | 1016.0 |
| 20260503180214 | 11 | 295 | 6.4 | 11.3 | 0.00 | 0.00 | 0.00 | 42 | 1016.1 |
| 20260503175710 | 11 | 356 | 9.7 | 14.5 | 0.00 | 0.00 | 0.00 | 41 | 1016.0 |
| 20260503175208 | 11 | 280 | 4.8 | 4.8 | 0.00 | 0.00 | 0.00 | 42 | 1016.1 |
| 20260503174704 | 11 | 295 | 6.4 | 6.4 | 0.00 | 0.00 | 0.00 | 47 | 1015.9 |
| 20260503174201 | 11 | 245 | 6.4 | 11.3 | 0.00 | 0.00 | 0.00 | 41 | 1016.1 |
| 20260503173656 | 11 | 319 | 1.6 | 3.2 | 0.00 | 0.00 | 0.00 | 41 | 1016.1 |
| 20260503173152 | 10 | 291 | 3.2 | 4.8 | 0.00 | 0.00 | 0.00 | 44 | 1016.4 |
| 20260503172649 | 10 | 292 | 6.4 | 9.7 | 0.00 | 0.00 | 0.00 | 42 | 1016.3 |
| 20260503172147 | 10 | 279 | 8.0 | 9.7 | 0.00 | 0.00 | 0.00 | 43 | 1016.3 |
| 20260503171643 | 10 | 266 | 4.8 | 4.8 | 0.00 | 0.00 | 0.00 | 42 | 1016.1 |
| 20260503171141 | 11 | 261 | 6.4 | 6.4 | 0.00 | 0.00 | 0.00 | 42 | 1016.4 |
| 20260503170638 | 11 | 282 | 4.8 | 6.4 | 0.00 | 0.00 | 0.00 | 43 | 1016.5 |
| 20260503170134 | 11 | 315 | 6.4 | 9.7 | 0.00 | 0.00 | 0.00 | 46 | 1016.5 |
| 20260503150526 | 8 | 196 | 6.4 | 6.4 | 0.00 | 0.00 | 0.00 | 46 | 1017.0 |
| 20260503131419 | 5 | 225 | 4.8 | 6.4 | 0.00 | 0.00 | 0.00 | 63 | 1016.9 |
| 20260503130916 | 5 | 228 | 1.6 | 3.2 | 0.00 | 0.00 | 0.00 | 63 | 1017.0 |
| 20260503130413 | 5 | 21 | 3.2 | 4.8 | 0.00 | 0.00 | 0.00 | 65 | 1017.0 |
| 20260503110817 | 0 | 233 | 0.0 | 0.0 | 0.00 | 0.00 | 0.00 | 94 | 1016.4 |
| 20260503110314 | 0 | 250 | 0.0 | 0.0 | 0.00 | 0.00 | 0.00 | 94 | 1016.3 |
| 20260503100240 | -1 | 250 | 0.0 | 0.0 | 0.00 | 0.00 | 0.00 | 92 | 1015.4 |
| 20260503090200 | 0 | 230 | 0.0 | 0.0 | 0.00 | 0.00 | 0.00 | 89 | 1015.3 |
| 20260503081630 | 0 | 243 | 0.0 | 1.6 | 0.00 | 0.00 | 0.00 | 88 | 1015.2 |
| 20260503081127 | 0 | 257 | 0.0 | 0.0 | 0.00 | 0.00 | 0.00 | 88 | 1015.0 |
| 20260503080623 | 0 | 269 | 0.0 | 0.0 | 0.00 | 0.00 | 0.00 | 88 | 1015.1 |
| 20260503080120 | 0 | 279 | 1.6 | 1.6 | 0.00 | 0.00 | 0.00 | 87 | 1015.0 |
| 20260503072557 | 0 | 292 | 0.0 | 0.0 | 0.00 | 0.00 | 0.00 | 82 | 1014.8 |
| 20260503072054 | 0 | 292 | 0.0 | 0.0 | 0.00 | 0.00 | 0.00 | 82 | 1014.7 |
| 20260503071550 | 0 | 292 | 0.0 | 0.0 | 0.00 | 0.00 | 0.00 | 81 | 1014.6 |
| 20260503071047 | 0 | 288 | 0.0 | 0.0 | 0.00 | 0.00 | 0.00 | 80 | 1014.6 |
| 20260503070543 | 0 | 333 | 3.2 | 3.2 | 0.00 | 0.00 | 0.00 | 80 | 1014.7 |